Location: Casa Rossa
(45.2389°N, 12.2056°E)
Time: 03:12:40
(UTC+00:00)

Cosmos 1666 - Pass Details

Date: 14 July 2020
Orbit: 497 x 521 km, 82.5° (Epoch: 11 August)

Event Time Altitude Azimuth Distance (km) Brightness Sun altitude
Exits shadow 01:13:18 30° 154° (SSE) 922 3.6 -18.1°
Maximum altitude 01:14:49 52° 95° (E) 641 3.2 -18.0°
Drops below altitude 10° 01:18:29 10° 19° (NNE) 1,724 6.6 -17.6°
Sets 01:20:38 0° 14° (NNE) 2,610 7.7 -17.5°
